Regional Weather Roundup
Issued by NWS Goodland, KS

Home | Current Version | Previous Version | Text Only | Print | Product List | Glossary Off
Versions: 1 2 3 4 5 6 7 8 9 10 11 12 13 14 15 16 17 18 19 20 21 22 23 24 25 26 27 28 29 30 31 32 33 34 35 36 37 38 39 40 41 42 43 44 45 46 47 48 49 50

000
ASUS43 KGLD 190408
RWRGLD

GOODLAND FORECAST AREA HOURLY WEATHER ROUNDUP
NATIONAL WEATHER SERVICE GOODLAND KS
1000 PM MDT FRI APR 18 2014

...OFFICIAL OBSERVATIONS...

CITY           SKY/WX    TMP DP  RH WIND       PRES   REMARKS
GOODLAND KS    PTCLDY    56  43  61 S25       29.93S
HILL CITY KS   CLEAR     60  41  49 S14       30.00S
IMPERIAL NEB   MOCLDY    60  42  51 S20G26    29.90S
MCCOOK NEB     PTCLDY    60  42  51 S21G28    29.94R
AKRON CO       CLOUDY    60  37  42 SE15      29.88S
BURLINGTON CO  MOCLDY    58  41  53 S22       29.93R
LIMON CO       CLOUDY    51  31  46 CALM      29.94R
$$

...UNOFFICIAL OBSERVATIONS...

CITY           SKY/WX    TMP DP  RH WIND       PRES   REMARKS
COLBY KS       CLEAR     59  45  58 SE24G30   29.97S
LENORA KS        N/A     59  32  36 SE20        N/A
LEOTI KS         N/A     57  32  38 SE14        N/A
NORTON KS      CLEAR     54  39  58 SE12G17   29.97S
OBERLIN KS     FAIR      59  41  51 S16G23    29.95S
SHARON SPRINGS   N/A     57  45  64 S20G26      N/A
WAKEENEY KS      N/A     60  38  45 MISG        N/A
KIT CARSON CO    N/A     61  42  48 MISG        N/A
WRAY CO        FAIR      63  43  48 SE18G24   29.89R
$$



USA.gov is the U.S. government's official web portal to all federal, state and local government web resources and services.